Location: *
(42.3442°N, 9.2072°E)
Time: 09:50:19
(UTC+00:00)

SPOT 3 Rocket - Pass Details

Date: 09 April 2020
Orbit: 779 x 794 km, 98.8° (Epoch: 04 June)

Event Time Altitude Azimuth Distance (km) Brightness Sun altitude
Exits shadow 19:22:42 14° 159° (SSE) 2,062 5.3 -15.5°
Maximum altitude 19:27:09 78° 75° (ENE) 813 3.5 -16.2°
Drops below altitude 10° 19:32:22 10° 349° (N) 2,362 6.6 -17.1°
Sets 19:34:41 0° 348° (NNW) 3,292 7.4 -17.5°
